星链-2220 (STARLINK-2220 )

导读

STARLINK-2220是美国太空探索技术公司(SpaceX)“星链”卫星互联网项目的成员,于2021年5月15日发射入轨。星链计划旨在构建全球卫星互联网星座,为全球偏远地区、海洋等网络覆盖薄弱区域提供高速低延迟的互联网服务。该卫星是星链大规模组网进程中的一颗批量生产卫星,为全球卫星通信网络的构建贡献力量。

基本信息
目录编号:
48570
目录名称:
STARLINK-2220
国际标识:
2021-041T
轨道中心:
EARTH
卫星名称:
星链-2220
卫星全名:
星链-2220 (STARLINK-2220 )
卫星状态:
已陨落 最后检测时间 2026-06-27
发射日期:
2021-05-15 UTC
国别 :
美国 (US)
星等 :
--
该卫星已列入 空间交会检测服务 Space Conjunction Data Service (SCDS) ,当前飞行风险评估等级: 无高风险
轨道信息
数据来源 国际轨道数据
星历时间: 2026-06-27T21:56:34+0800
轨道信息已过期76天
半长轴: 6542.805km
偏心率: 0.0007685
轨道倾角: 53.109°
近地点辐角 303.617°
升交点赤经 342.599°
平近点角 56.414°
近地点: 159.639km
远地点: 169.697km
周期: 87.782分钟
每日圈数: 16.404267
详细信息
固有亮度:
5
最大亮度:
2.5
卫星平台:
Starlink V1.0
覆盖范围:
全球
运营商:
太空探索技术公司
运营商所在国:
美国
制造商(研发单位):
太空探索技术公司
制造商所在国:
美国
使用方式:
暂无
卫星简介
星链(Starlink)计划是由太空探索技术公司(SpaceX)提出的一个巨型低轨卫星互联网星座项目,计划在2019年至2024年间在太空搭建由约1.2万颗卫星组成的“星链”网络,其中1584颗将部署在地球上空550千米处的近地轨道,并从2020年开始工作。该卫星仍在工作。
与全量物体交会距离演化趋势
与全量物体交会风险概率演化趋势